Location: ????
(55.5675°N, 37.6272°E)
Time: 20:57:00
(UTC+00:00)

SL-4 R/B - Pass Details

Date: 14 April 2026
Orbit: 380 x 505 km, 51.6° (Epoch: 16 May)

Event Time Altitude Azimuth Distance (km) Brightness Sun altitude
Exits shadow 23:42:43 42° 161° (SSE) 733 2.3 -19.1°
Drops below altitude 10° 23:46:11 10° 98° (E) 1,692 4.8 -18.8°
Sets 23:48:24 0° 91° (E) 2,558 5.9 -18.6°
